Regional Weather Roundup
Issued by NWS

Home | Current Version | Previous Version | Graphics & Text | Print | Product List | Glossary On
Versions: 1 2 3 4 5 6 7 8 9 10 11 12 13 14 15 16 17 18 19 20 21 22 23 24 25 26 27
000
ASUS45 KCYS 241010
RWRWY

WYOMING REGIONAL WEATHER ROUNDUP
NATIONAL WEATHER SERVICE CHEYENNE WY
400 AM MDT MON APR 24 2017

NOTE:  "FAIR" INDICATES FEW OR NO CLOUDS BELOW 12,000 FEET
WITH NO SIGNIFICANT WEATHER AND/OR OBSTRUCTIONS TO VISIBILITY.

WYZ001-241100-
YELLOWSTONE NATIONAL PARK

CITY           SKY/WX    TMP DP  RH WIND       PRES   REMARKS
LK YELLOWSTONE   N/A     24  24 100 CALM      29.77F
W YELLOWSTONE  NOT AVBL

$$
WYZ002>013-054>058-071-098>099-241100-
NORTHERN WYOMING

CITY           SKY/WX    TMP DP  RH WIND       PRES   REMARKS
JACKSON        MOCLDY    34  34 100 CALM      29.76F
CODY           FAIR      38  35  89 CALM      29.70F
GREYBULL       FAIR      42  36  79 S5        29.67F
WORLAND        FAIR      41  37  86 S5        29.69S
SHERIDAN       FAIR      40  37  89 N3        29.68S
BUFFALO        FAIR      43  37  79 VRB7      29.69S
GILLETTE       FAIR      43  42  97 W9        29.65R
HULETT         CLOUDY    41  39  93 S6        29.63F
NEWCASTLE      FAIR      45  37  76 N16G24    29.63R

$$
WYZ014>020-022>026-101>103-241100-
CENTRAL WYOMING

CITY           SKY/WX    TMP DP  RH WIND       PRES   REMARKS
BIG PINEY      CLOUDY    30  25  81 CALM      29.81S
PINEDALE       CLOUDY    27  25  93 NE6       29.81S WCI  20
DUBOIS         PTSUNNY   32  28  86 NW5       29.74S WCI  27
LANDER         FAIR      40  25  55 SE5       29.70F
RIVERTON       FAIR      41  30  65 W7        29.71F
CASPER         MOCLDY    40  37  89 NE8       29.72R WCI  34
DOUGLAS        FAIR      45  39  79 N13       29.68R

$$
WYZ021-027>030-104>119-241100-
SOUTHERN WYOMING

CITY           SKY/WX    TMP DP  RH WIND       PRES   REMARKS
EVANSTON       FAIR      33  30  88 SW8       29.81F WCI  26
KEMMERER         N/A     32  28  86 N5        29.82S WCI  27
ROCK SPRINGS   FAIR      37  33  85 SW8       29.81F WCI  31
DIXON            N/A     39  36  91 NE5       29.86S
RAWLINS        FAIR      38  34  85 W13       29.80S WCI  30
SARATOGA       CLOUDY    37  37 100 SE9       29.81F WCI  31
LARAMIE        LGT RAIN  38  35  89 NW14      29.79R WCI  30
CHEYENNE       FAIR      47  35  63 NW17G26   29.70F
TORRINGTON     MOCLDY    54  38  54 W12       29.63R
PINE BLUFFS    FAIR      50  36  57 NW26G33   29.68R

$$




USA.gov is the U.S. government's official web portal to all federal, state and local government web resources and services.